sat.trackr.live / text

‹ back to catalog

STARLINK-1068

NORAD 44772 · 2019-074BM

PAYLOAD ACTIVE UNKNOWN

§ Identity

Operator
Country
US
Launch date
2019-11-11
Launch site
AFETR
Launch vehicle
Mass (kg)
RCS (m²)

Purposes: comms

External: N2YO · Heavens-Above · Gunter

§ Orbital elements

Epoch: 2026-05-25T04:46:15.271104Z

Period
91.54 min
Inclination
53.0422°
Eccentricity
0.0002455
Mean motion
15.73108831 rev/d
Perigee alt
348.4 km
Apogee alt
351.7 km
Semi-major
6,728.2 km
B*
4.5551e-4
RAAN
162.2708°
Arg perigee
63.1131°
Mean anomaly
297.0137°
Rev number
36,085

§ Raw data

STARLINK-10681 44772U 19074BM  26145.19878786  .00063559  00000+0  45551-3 0  99972 44772  53.0422 162.2708 0002455  63.1131 297.0137 15.73108831360857

JSON: /api/v1/satellites/44772 · /tle

For live sub-satellite position, see the globe view (requires WebGL).

§ Visibility from observer

Set your observer location to see the next 7 days of passes ≥ 10°. The values pass through the URL so the page stays shareable.

No JS? Fill the form by hand. The geolocation button needs JavaScript.